Previsão horária em Lisboa

Hoje, 6 Maio, Quinta-feira

Tempo Temperatura Precipitação Vento Pressão Humidade
00:00 +14°C° 0 mm 5 m/s 758 mmHg 91%
01:00 +14°C° 0 mm 4 m/s 758 mmHg 92%
02:00 +13°C° 0 mm 4 m/s 757 mmHg 94%
03:00 +13°C° 0 mm 4 m/s 758 mmHg 94%
04:00 +13°C° 0 mm 3 m/s 758 mmHg 94%
05:00 +13°C° 0 mm 3 m/s 758 mmHg 94%
06:00 +15°C° 0 mm 4 m/s 758 mmHg 84%
07:00 +18°C° 0 mm 4 m/s 758 mmHg 74%
08:00 +20°C° 0 mm 5 m/s 758 mmHg 65%
09:00 +21°C° 0 mm 5 m/s 758 mmHg 60%
10:00 +22°C° 0 mm 5 m/s 758 mmHg 55%
11:00 +23°C° 0 mm 5 m/s 758 mmHg 50%
12:00 +23°C° 0 mm 5 m/s 758 mmHg 50%
13:00 +23°C° 0 mm 6 m/s 758 mmHg 49%
14:00 +23°C° 0 mm 6 m/s 758 mmHg 49%
15:00 +22°C° 0 mm 6 m/s 758 mmHg 54%
16:00 +21°C° 0 mm 6 m/s 758 mmHg 59%
17:00 +20°C° 0 mm 6 m/s 758 mmHg 64%
18:00 +19°C° 0 mm 5 m/s 758 mmHg 72%
19:00 +17°C° 0 mm 4 m/s 759 mmHg 80%
20:00 +16°C° 0 mm 3 m/s 759 mmHg 88%
21:00 +14°C° 0 mm 3 m/s 759 mmHg 90%
22:00 +14°C° 0 mm 3 m/s 759 mmHg 91%
23:00 +15°C° 0 mm 2 m/s 759 mmHg 92%

Amanhã, 7 Maio, Sexta-feira

Tempo Temperatura Precipitação Vento Pressão Humidade
00:00 +14°C° 0 mm 2 m/s 759 mmHg 93%
01:00 +14°C° 0 mm 2 m/s 759 mmHg 93%
02:00 +14°C° 0 mm 2 m/s 758 mmHg 94%
03:00 +14°C° 0 mm 2 m/s 758 mmHg 94%
04:00 +14°C° 0 mm 1 m/s 758 mmHg 95%
05:00 +14°C° 0 mm 1 m/s 758 mmHg 95%
06:00 +16°C° 0 mm 1 m/s 758 mmHg 85%
07:00 +19°C° 0 mm 1 m/s 758 mmHg 76%
08:00 +20°C° 0 mm 2 m/s 758 mmHg 66%
09:00 +21°C° 0 mm 2 m/s 758 mmHg 61%
10:00 +22°C° 0 mm 3 m/s 758 mmHg 57%
11:00 +23°C° 0 mm 4 m/s 758 mmHg 53%
12:00 +23°C° 0 mm 4 m/s 757 mmHg 53%
13:00 +23°C° 0 mm 5 m/s 757 mmHg 53%
14:00 +23°C° 0 mm 5 m/s 757 mmHg 53%
15:00 +22°C° 0 mm 5 m/s 757 mmHg 56%
16:00 +21°C° 0 mm 5 m/s 757 mmHg 60%
17:00 +20°C° 0 mm 5 m/s 757 mmHg 63%
18:00 +18°C° 0 mm 4 m/s 757 mmHg 72%
19:00 +17°C° 0 mm 4 m/s 757 mmHg 82%
20:00 +16°C° 0 mm 3 m/s 757 mmHg 91%
21:00 +15°C° 0 mm 4 m/s 757 mmHg 92%
22:00 +15°C° 0 mm 4 m/s 756 mmHg 93%
23:00 +14°C° 0 mm 4 m/s 756 mmHg 94%

Depois de amanhã, 8 Maio, Sábado

Tempo Temperatura Precipitação Vento Pressão Humidade
00:00 +14°C° 0 mm 4 m/s 756 mmHg 94%
01:00 +15°C° 0 mm 4 m/s 755 mmHg 95%
02:00 +15°C° 0 mm 5 m/s 755 mmHg 95%
03:00 +15°C° 0 mm 5 m/s 755 mmHg 93%
04:00 +16°C° 0 mm 6 m/s 755 mmHg 91%
05:00 +16°C° 0 mm 7 m/s 755 mmHg 89%
06:00 +16°C° 0.2 mm 7 m/s 755 mmHg 87%
07:00 +17°C° 0.2 mm 7 m/s 755 mmHg 84%
08:00 +17°C° 0.2 mm 7 m/s 755 mmHg 82%
09:00 +16°C° 1.7 mm 7 m/s 755 mmHg 85%
10:00 +14°C° 1.7 mm 6 m/s 756 mmHg 89%
11:00 +13°C° 1.7 mm 5 m/s 756 mmHg 92%
12:00 +13°C° 0.4 mm 4 m/s 756 mmHg 86%
13:00 +14°C° 0.4 mm 3 m/s 756 mmHg 80%
14:00 +16°C° 0.4 mm 2 m/s 756 mmHg 74%
15:00 +16°C° 0 mm 3 m/s 756 mmHg 71%
16:00 +17°C° 0 mm 3 m/s 756 mmHg 68%
17:00 +17°C° 0 mm 4 m/s 756 mmHg 65%
18:00 +16°C° 0 mm 3 m/s 757 mmHg 73%
19:00 +13°C° 0 mm 3 m/s 757 mmHg 81%
20:00 +13°C° 0 mm 2 m/s 757 mmHg 89%
21:00 +13°C° 0 mm 2 m/s 757 mmHg 89%
22:00 +12°C° 0 mm 2 m/s 757 mmHg 89%
23:00 +12°C° 0 mm 2 m/s 757 mmHg 88%

9 Maio, Domingo

Tempo Temperatura Precipitação Vento Pressão Humidade

10 Maio, Segunda-feira

Tempo Temperatura Precipitação Vento Pressão Humidade

11 Maio, Terça-feira

Tempo Temperatura Precipitação Vento Pressão Humidade
Mostrar mais

Necessitamos do seu Consentimento

A Meteoprog e os seus Fornecedores de Serviços podem armazenar e aceder a dados pessoais como cookies, identificadores do dispositivo ou outras tecnologias semelhantes existentes no seu dispositivo e processar estes dados para personalizar conteúdos e anúncios, assim como funcionalidades nas redes sociais e análise de tráfego.

  • Armazenar e/ou aceder a informações no seu dispositivo

    Os cookies, identificadores do dispositivo ou outras informações podem ser armazenados ou acedidos no seu dispositivo, para os fins acima indicados.

  • Anúncios e conteúdos personalizados, medição de anúncios e conteúdos, dados sobre o público-alvo e desenvolvimento de produtos

    Os anúncios e os conteúdos podem ser personalizados com base num perfil. Podem ser adicionados dados adicionais para uma maior personalização dos anúncios e dos conteúdos. A eficácia dos anúncios e dos conteúdos pode ser medida. Podem ser obtidas informações sobre o público que visualizou os anúncios e os conteúdos. Estes dados podem ser usados para desenvolver ou melhorar sistemas, softwares ou a experiência do utilizador.

Ao clicar em "Eu concordo”, permitirá o uso de cookies, identificadores do dispositivo e web beacons mencionados ou outras tecnologias semelhantes. As configurações do navegador do seu dispositivo podem ser alteradas.

Para certos fins, podem ser invocados interesses legítimos ao invés de consentimento. Pode ler mais informação sobre este assunto na nossa Política de Privacidade e Cookies.